Regional Weather Roundup
Issued by NWS Little Rock, AR

Home | Current Version | Previous Version | Graphics & Text | Print | Product List | Glossary On
Versions: 1 2 3 4 5 6 7 8 9 10 11 12 13 14 15 16 17 18 19 20 21 22 23 24 25 26 27 28 29 30 31 32
000
ASUS44 KLZK 212005
RWRLZK

WEATHER ROUNDUP FOR ARKANSAS
NATIONAL WEATHER SERVICE LITTLE ROCK AR
200 PM CST TUE FEB 21 2017

NOTE: "FAIR" INDICATES FEW OR NO CLOUDS BELOW 12,000 FEET WITH NO
SIGNIFICANT WEATHER AND/OR OBSTRUCTIONS TO VISIBILITY.

ARZ001-003-010-029-212100-
NORTHWEST ARKANSAS

CITY           SKY/WX    TMP DP  RH WIND       PRES   REMARKS
FAYETTEVILLE   MOSUNNY   64  54  69 N8        29.87F
FORT SMITH     CLOUDY    63  55  75 SW13      29.86F
HARRISON       CLOUDY    59  57  93 NE8       29.87F
BENTONVILLE    CLOUDY    66  52  59 N13G20    29.89F
ROGERS         CLOUDY    65  53  65 N10       29.89F
SILOAM SPGS    CLOUDY    66  55  68 N13       29.89F
HIGHFILL       CLOUDY    65  56  72 NW10G21   29.88F
$$

ARZ004-005-016-212100-
NORTH CENTRAL ARKANSAS

CITY           SKY/WX    TMP DP  RH WIND       PRES   REMARKS
BATESVILLE     CLOUDY    59  55  88 N5        29.85F
FLIPPIN        CLOUDY    61  54  77 N5        29.84F
MTN HOME       CLOUDY    60  57  89 VRB3      29.85F
$$

ARZ040-041-212100-
WEST CENTRAL ARKANSAS

CITY           SKY/WX    TMP DP  RH WIND       PRES   REMARKS
MENA           CLOUDY    66  59  77 N8        29.86F
MOUNT IDA      LGT RAIN  62  58  86 NW3       29.82F
$$

ARZ009-017-025-026-028-212100-
NORTHEAST ARKANSAS

CITY           SKY/WX    TMP DP  RH WIND       PRES   REMARKS
CORNING        CLOUDY    61  61 100 NE6       29.86S
JONESBORO      CLOUDY    66  58  75 S5        29.83F
NEWPORT        CLOUDY    63  60  90 NW3       29.83F
WALNUT RIDGE   CLOUDY    61  57  88 NE7       29.84F
BLYTHEVILLE    CLOUDY    65  59  81 SE7       29.86F
$$

ARZ022-023-033-042-044-212100-
CENTRAL ARKANSAS

CITY           SKY/WX    TMP DP  RH WIND       PRES   REMARKS
LITTLE ROCK    CLOUDY    62  61  96 NW3       29.81F
N LITTLE ROCK    N/A     60  59  96 CALM      29.82F
JACKSONVILLE   LGT RAIN  62  62  99 CALM      29.80F
SEARCY         LGT RAIN  62  62 100 W5        29.84S
HOT SPRINGS    CLOUDY    61  60  97 VRB3      29.83F
RUSSELLVILLE   LGT RAIN  60  59  96 NW7       29.83F FOG
CLINTON        CLOUDY    61  59  94 CALM      29.83F FOG
$$

ARZ036-212100-
EAST ARKANSAS

CITY           SKY/WX    TMP DP  RH WIND       PRES   REMARKS
WEST MEMPHIS   CLOUDY    66  59  78 S10       29.83F
$$

ARZ050-053-066-070-073-212100-
SOUTHWEST ARKANSAS

CITY           SKY/WX    TMP DP  RH WIND       PRES   REMARKS
ARKADELPHIA    LGT RAIN  61  60  97 NW7       29.83F
CAMDEN         CLOUDY    63  57  82 SW6       29.83F
TEXARKANA      LGT RAIN  63  57  81 W10       29.85F
EL DORADO      LGT RAIN  61  57  87 SW6       29.85F
DE QUEEN       CLOUDY    68  58  70 VRB6      29.83F
$$

ARZ056-057-069-212100-
SOUTHEAST ARKANSAS

CITY           SKY/WX    TMP DP  RH WIND       PRES   REMARKS
PINE BLUFF     PTSUNNY   64  57  78 SW5       29.82F
STUTTGART      CLOUDY    64  52  63 S5        29.84S
MONTICELLO     CLOUDY    63  58  83 S7        29.83F

$$






USA.gov is the U.S. government's official web portal to all federal, state and local government web resources and services.